Weather History for Ogden, UT

Change the Weather History Date:

Wednesday, January 30, 2013

  Actual Average Record
Temperature  
Mean Temperature 30 °F -  
Max Temperature 36 °F 36 °F 53 °F (2003)
Min Temperature 24 °F 15 °F -6 °F (1944)
Degree Days  
Heating Degree Days 35    
Moisture  
Dew Point 26 °F    
Average Humidity 89    
Maximum Humidity 93    
Minimum Humidity 76    
Precipitation  
Precipitation 0.06 in - - ()
Sea Level Pressure  
Sea Level Pressure 30.21 in    
Wind  
Wind Speed 8 mph (South)    
Max Wind Speed 13 mph    
Max Gust Speed -    
Visibility 4 miles    
Events Snow    
Averages and records for this station are not official NWS values.
T = Trace of Precipitation, MM = Missing Value Source: NWS Daily Summary

Daily Weather History Graph

Daily Weather History Graph

Search for Another Location

Airport:

Trip Planner

Search our weather history database for the weather conditions in past years. The results will help you decide how hot, cold, wet, or windy it might be!

Date:

Astronomy

Jan. 30, 2013 Rise Set
Actual Time 7:40 AM MST 5:42 PM MST
Civil Twilight 7:11 AM MST 6:11 PM MST
Nautical Twilight 6:38 AM MST 6:45 PM MST
Astronomical Twilight 6:05 AM MST 7:17 PM MST
Moon 9:48 PM MST (1/30) 9:07 AM MST (1/30)
Length of Visible Light 11h 00m
Length of Day
10h 01m
Waning Gibbous, 87% of the Moon is Illuminated
Jan 30
Waning Gibbous
Feb 3
Last Quarter
Feb 10
New
Feb 17
First Quarter
Feb 25
Full

Hourly Weather History & Observations

Time (MST) Temp. Windchill Dew Point Humidity Pressure Visibility Wind Dir Wind Speed Gust Speed Precip Events Conditions
12:27 AM 24.8 °F 17.9 °F 23.0 °F 93% 30.18 in 4.0 mi SSE 5.8 mph - 0.00 in Snow Light Snow
12:49 AM 26.6 °F 21.2 °F 24.8 °F 93% 30.18 in 5.0 mi SSE 4.6 mph - 0.00 in   Overcast
12:53 AM 26.1 °F 20.5 °F 24.1 °F 92% 30.26 in 6.0 mi South 4.6 mph - 0.00 in   Overcast
1:03 AM 26.6 °F 20.0 °F 23.0 °F 86% 30.18 in 6.0 mi South 5.8 mph - N/A   Overcast
1:53 AM 26.1 °F 17.6 °F 24.1 °F 92% 30.25 in 6.0 mi South 8.1 mph - N/A   Overcast
2:04 AM 26.6 °F 17.5 °F 24.8 °F 93% 30.18 in 6.0 mi South 9.2 mph - N/A   Overcast
2:21 AM 26.6 °F 18.2 °F 24.8 °F 93% 30.18 in 7.0 mi South 8.1 mph - N/A   Overcast
2:30 AM 26.6 °F 17.5 °F 24.8 °F 93% 30.18 in 7.0 mi South 9.2 mph - N/A   Overcast
2:53 AM 26.1 °F 17.6 °F 24.1 °F 92% 30.25 in 7.0 mi South 8.1 mph - N/A   Overcast
3:53 AM 27.0 °F 18.0 °F 23.0 °F 85% 30.23 in 10.0 mi South 9.2 mph - N/A   Overcast
4:53 AM 28.0 °F 20.8 °F 23.0 °F 81% 30.22 in 10.0 mi South 6.9 mph - N/A   Overcast
5:32 AM 28.4 °F 21.2 °F 23.0 °F 80% 30.16 in 4.0 mi South 6.9 mph - 0.00 in Snow Light Snow
5:44 AM 28.4 °F 20.4 °F 24.8 °F 86% 30.16 in 2.0 mi South 8.1 mph - 0.00 in Snow Light Snow
5:51 AM 28.4 °F 21.2 °F 24.8 °F 86% 30.16 in 1.8 mi South 6.9 mph - 0.00 in Snow Light Snow
5:53 AM 28.0 °F 20.8 °F 24.1 °F 85% 30.24 in 1.5 mi South 6.9 mph - 0.00 in Snow Light Snow
6:02 AM 26.6 °F 18.2 °F 24.8 °F 93% 30.16 in 1.0 mi South 8.1 mph - 0.01 in Snow Light Snow
6:17 AM 26.6 °F 18.2 °F 24.8 °F 93% 30.16 in 0.8 mi South 8.1 mph - 0.01 in Snow Light Snow
6:32 AM 26.6 °F 17.5 °F 24.8 °F 93% 30.16 in 1.0 mi SSE 9.2 mph - 0.02 in Snow Light Snow
6:46 AM 26.6 °F 17.5 °F 24.8 °F 93% 30.16 in 1.0 mi SSE 9.2 mph - 0.02 in Snow Light Snow
6:53 AM 27.0 °F 18.0 °F 24.1 °F 89% 30.23 in 1.0 mi SSE 9.2 mph - 0.02 in Snow Light Snow
7:53 AM 27.0 °F 18.7 °F 25.0 °F 92% 30.25 in 1.5 mi SSE 8.1 mph - 0.02 in Snow Light Snow
8:12 AM 26.6 °F 18.2 °F 24.8 °F 93% 30.18 in 2.0 mi South 8.1 mph - 0.00 in Snow Light Snow
8:24 AM 26.6 °F 18.2 °F 24.8 °F 93% 30.17 in 2.0 mi SSE 8.1 mph - 0.00 in Snow Light Snow
8:32 AM 26.6 °F 18.2 °F 24.8 °F 93% 30.17 in 1.2 mi SSE 8.1 mph - 0.00 in Snow Light Snow
8:39 AM 28.4 °F 21.2 °F 24.8 °F 86% 30.18 in 1.2 mi SSE 6.9 mph - 0.00 in Snow Light Snow
8:53 AM 28.0 °F 19.3 °F 26.1 °F 92% 30.26 in 1.8 mi SSE 9.2 mph - 0.00 in Snow Light Snow
9:20 AM 28.4 °F 18.0 °F 26.6 °F 93% 30.18 in 1.8 mi South 12.7 mph - 0.01 in Snow Light Snow
9:28 AM 28.4 °F 18.0 °F 26.6 °F 93% 30.18 in 2.0 mi South 12.7 mph - 0.01 in Snow Light Snow
9:38 AM 28.4 °F 18.0 °F 26.6 °F 93% 30.18 in 1.5 mi SSE 12.7 mph - 0.01 in Snow Light Snow
9:53 AM 28.9 °F 19.2 °F 26.1 °F 89% 30.25 in 1.8 mi South 11.5 mph - 0.01 in Snow Light Snow
10:00 AM 28.4 °F 19.1 °F 26.6 °F 93% 30.19 in 2.5 mi South 10.4 mph - 0.00 in   Overcast
10:07 AM 28.4 °F 19.1 °F 26.6 °F 93% 30.19 in 3.0 mi South 10.4 mph - 0.00 in Snow Light Snow
10:20 AM 28.4 °F 19.1 °F 26.6 °F 93% 30.19 in 2.0 mi South 10.4 mph - 0.00 in Snow Light Snow
10:30 AM 28.4 °F 19.7 °F 26.6 °F 93% 30.19 in 1.5 mi South 9.2 mph - 0.00 in Snow Light Snow
10:48 AM 28.4 °F 20.4 °F 26.6 °F 93% 30.20 in 0.8 mi SSE 8.1 mph - 0.00 in Snow Light Snow
10:53 AM 28.9 °F 20.4 °F 27.0 °F 92% 30.26 in 0.8 mi SSE 9.2 mph - 0.00 in Snow Light Snow
11:15 AM 28.4 °F 19.7 °F 26.6 °F 93% 30.20 in 1.0 mi South 9.2 mph - 0.00 in Snow Light Snow
11:53 AM 30.9 °F 22.2 °F 28.0 °F 89% 30.26 in 1.8 mi SSE 10.4 mph - 0.00 in Snow Light Snow
12:03 PM 30.2 °F 23.4 °F 28.4 °F 93% 30.20 in 2.5 mi South 6.9 mph - 0.00 in Snow Light Snow
12:10 PM 30.2 °F 21.9 °F 28.4 °F 93% 30.20 in 5.0 mi South 9.2 mph - 0.00 in   Overcast
12:53 PM 32.0 °F 24.2 °F 28.9 °F 88% 30.23 in 6.0 mi South 9.2 mph - 0.01 in   Overcast
1:53 PM 33.1 °F 26.9 °F 30.0 °F 89% 30.23 in 3.0 mi SSE 6.9 mph - 0.00 in Snow Light Snow
2:53 PM 34.0 °F 27.2 °F 30.0 °F 85% 30.22 in 8.0 mi South 8.1 mph - 0.00 in   Overcast
3:53 PM 35.1 °F 29.3 °F 30.0 °F 82% 30.22 in 8.0 mi South 6.9 mph - N/A   Overcast
4:53 PM 35.1 °F 29.3 °F 30.0 °F 82% 30.22 in 8.0 mi SSE 6.9 mph - N/A   Overcast
5:53 PM 34.0 °F 29.8 °F 30.0 °F 85% 30.23 in 7.0 mi South 4.6 mph - N/A   Overcast
6:53 PM 35.1 °F 30.1 °F 30.0 °F 82% 30.23 in 10.0 mi South 5.8 mph - N/A   Overcast
7:53 PM 36.0 °F 30.3 °F 28.9 °F 76% 30.23 in 10.0 mi South 6.9 mph - N/A   Overcast
8:53 PM 35.1 °F 30.1 °F 28.9 °F 78% 30.23 in 10.0 mi SSE 5.8 mph - N/A   Overcast
9:53 PM 33.1 °F - 30.0 °F 89% 30.25 in 7.0 mi Calm Calm - N/A   Overcast
10:53 PM 34.0 °F 29.8 °F 28.9 °F 82% 30.26 in 10.0 mi SE 4.6 mph - N/A   Overcast
11:53 PM 34.0 °F 28.0 °F 28.0 °F 79% 30.25 in 10.0 mi SW 6.9 mph - N/A   Overcast